Location: Boullarre
(49.1305°N, 3.0047°E)
Time: 00:08:57
(UTC+00:00)

IRIDIUM 114 - Pass Details

Date: 03 February 2023
Orbit: 776 x 779 km, 86.4° (Epoch: 01 April)

Event Time Altitude Azimuth Distance (km) Brightness Sun altitude
Rises 18:36:13 0° 356° (N) 3,277 7.6 -17.9°
Reaches altitude 10° 18:38:35 10° 356° (N) 2,345 6.8 -18.3°
Maximum altitude 18:43:51 88° 85° (E) 787 4.3 -19.2°
Drops below altitude 10° 18:49:04 10° 177° (S) 2,326 6.8 -20.0°
Sets 18:51:24 0° 178° (S) 3,249 7.6 -20.4°
